Mountain Home, AR

6:20 PM CDT on October 22, 2019 (GMT -0500)
Baxter County Regional

Weather History for KBPK - August, 2019

Change the Weather History Date:

Sunday, August 18, 2019

  Actual Average (KFLP) Record (KFLP)
Temperature  
Mean Temperature 82 °F -  
Max Temperature 91 °F 88 °F 102 °F (1999)
Min Temperature 75 °F 65 °F 62 °F (2013)
Cooling Degree Days 18    
Growing Degree Days 32 (Base 50)    
Moisture  
Dew Point 74 °F    
Average Humidity 78    
Maximum Humidity 94    
Minimum Humidity 61    
Precipitation  
Precipitation 0.03 in - - ()
Sea Level Pressure  
Sea Level Pressure 29.89 in    
Wind  
Wind Speed 4 mph (SSW)    
Max Wind Speed 12 mph    
Max Gust Speed 17 mph    
Visibility 10 miles    
Events Rain , Thunderstorm    
Averages and records for this station are not official NWS values.
T = Trace of Precipitation, MM = Missing Value Source: NWS Daily Summary

Daily Weather History Graph

Daily Weather History Graph

Search for Another Location

Airport or City:

Astronomy

Aug. 18, 2019 Rise Set
Actual Time 6:30 AM CDT 7:56 PM CDT
Civil Twilight 6:02 AM CDT 8:24 PM CDT
Nautical Twilight 5:30 AM CDT 8:56 PM CDT
Astronomical Twilight 4:55 AM CDT 9:30 PM CDT
Moon 9:56 PM CDT (8/18) 9:11 AM CDT (8/18)
Length of Visible Light 14h 21m
Length of Day
13h 26m
Waning Gibbous, 91% of the Moon is Illuminated
Aug 18
Waning Gibbous
Aug 23
Last Quarter
Aug 30
New
Sep 5
First Quarter
Sep 13
Full

Hourly Weather History & Observations

Time (CDT) Temp. Heat Index Dew Point Humidity Pressure Visibility Wind Dir Wind Speed Gust Speed Precip Events Conditions
1:53 AM 75.9 °F - 70.0 °F 82% 29.86 in 10.0 mi South 3.5 mph - N/A   Clear
2:53 AM 75.9 °F - 70.0 °F 82% 29.85 in 10.0 mi SSW 4.6 mph - N/A   Clear
3:53 AM 75.0 °F - 70.0 °F 84% 29.84 in 10.0 mi South 4.6 mph - N/A   Clear
4:53 AM 75.0 °F - 71.1 °F 87% 29.86 in 10.0 mi Calm Calm - N/A   Clear
5:53 AM 75.9 °F - 71.1 °F 85% 29.87 in 10.0 mi WSW 3.5 mph - N/A   Clear
6:53 AM 75.0 °F - 71.1 °F 87% 29.88 in 10.0 mi Calm Calm - N/A   Clear
7:53 AM 77.0 °F - 72.0 °F 84% 29.90 in 10.0 mi WSW 3.5 mph - N/A   Clear
8:53 AM 80.1 °F 84.2 °F 73.0 °F 79% 29.90 in 10.0 mi Variable 3.5 mph - N/A   Scattered Clouds
9:53 AM 82.9 °F 87.0 °F 70.0 °F 65% 29.90 in 10.0 mi Calm Calm - N/A   Clear
10:53 AM 84.9 °F 91.4 °F 73.0 °F 67% 29.92 in 10.0 mi SW 5.8 mph - N/A   Clear
11:53 AM 87.1 °F 96.3 °F 75.0 °F 67% 29.92 in 10.0 mi SW 6.9 mph - N/A   Clear
12:53 PM 89.1 °F 100.2 °F 75.9 °F 65% 29.89 in 10.0 mi SW 11.5 mph 17.3 mph N/A   Partly Cloudy
1:20 PM 90.0 °F 100.2 °F 75.0 °F 61% 29.91 in 10.0 mi WSW 8.1 mph - N/A Thunderstorm Clear
1:37 PM 87.1 °F 96.3 °F 75.0 °F 67% 29.92 in 10.0 mi Variable 3.5 mph - N/A Thunderstorm Thunderstorm
1:53 PM 81.0 °F 86.7 °F 75.0 °F 82% 29.89 in 4.0 mi Calm Calm - 0.03 in Rain , Thunderstorm Light Rain
2:03 PM 80.1 °F 86.4 °F 78.1 °F 94% 29.92 in 10.0 mi Calm Calm - 0.00 in Thunderstorm Thunderstorm
2:33 PM 82.0 °F 88.6 °F 75.0 °F 79% 29.89 in 10.0 mi South 3.5 mph - 0.00 in   Partly Cloudy
2:53 PM 82.9 °F 89.4 °F 73.9 °F 74% 29.86 in 10.0 mi South 4.6 mph - 0.00 in   Scattered Clouds
3:53 PM 87.1 °F 99.8 °F 78.1 °F 74% 29.83 in 10.0 mi Calm Calm - N/A   Partly Cloudy
4:53 PM 89.1 °F 103.2 °F 78.1 °F 70% 29.84 in 10.0 mi SW 4.6 mph - N/A   Clear
5:53 PM 88.0 °F 100.2 °F 77.0 °F 70% 29.84 in 10.0 mi SSW 4.6 mph - N/A   Mostly Cloudy
6:53 PM 87.1 °F 98.8 °F 77.0 °F 72% 29.85 in 10.0 mi South 3.5 mph - N/A   Clear
7:53 PM 82.0 °F 90.2 °F 77.0 °F 85% 29.87 in 10.0 mi South 3.5 mph - N/A   Clear
8:53 PM 81.0 °F 87.3 °F 75.9 °F 85% 29.90 in 10.0 mi South 5.8 mph - N/A   Scattered Clouds
9:53 PM 80.1 °F 85.4 °F 75.9 °F 87% 29.92 in 10.0 mi SSE 3.5 mph - N/A   Scattered Clouds
10:53 PM 79.0 °F - 75.9 °F 90% 29.94 in 10.0 mi Calm Calm - N/A   Mostly Cloudy
11:53 PM 77.0 °F - 75.0 °F 94% 29.94 in 10.0 mi SE 4.6 mph - N/A   Partly Cloudy